Location: Kernascl�den
(48.0062°N, 3.3198°W)
Time: 22:27:07
(UTC+00:00)

Cosmos 1602 Rocket - Pass Details

Date: 21 January 2021
Orbit: 604 x 632 km, 82.5° (Epoch: 04 March)

Event Time Altitude Azimuth Distance (km) Brightness Sun altitude
Rises 18:42:48 0° 172° (S) 2,851 7.0 -17.5°
Reaches altitude 10° 18:45:03 10° 166° (SSE) 1,955 6.1 -17.9°
Maximum altitude 18:49:11 46° 93° (E) 827 3.7 -18.5°
Enters shadow 18:50:11 38° 55° (NE) 934 4.0 -18.7°
